Location: Newark
(40.4881°N, 5.6117°W)
Time: 23:19:15
(UTC+00:00)

Hubble Space Telescope - Visible Passes

Search period start: 24 March 2019 00:00
Search period end: 03 April 2019 00:00
Orbit: 537 x 540 km, 28.5° (Epoch: 24 March)

Date Brightness Start Highest point End Pass type
(mag) Time Alt. Az. Time Alt. Az. Time Alt. Az.
25 Mar 3.0 20:06:30 10° S 20:07:45 12° S 20:07:45 12° S visible
26 Mar 2.9 19:55:30 10° SSW 19:57:29 13° S 19:58:03 13° SSE visible
27 Mar 2.8 19:44:39 10° SSW 19:46:51 14° S 19:48:18 12° SSE visible
28 Mar 2.9 19:33:54 10° SSW 19:36:15 15° S 19:38:30 10° SE visible
29 Mar 2.9 19:23:12 10° SW 19:25:38 15° S 19:28:05 10° SE visible
30 Mar 2.9 19:12:34 10° SW 19:15:03 15° S 19:17:30 10° SE visible
